Wind_Speed
53 52 50 48 48 46 43 40 39 42 42 41 42 41 41 41 40 41 42 43 43 42 42 43 44 44 45 45 46 46 48 49 49 50 49 48 49 51 53 52 51 51 51
56 53 53 50 50 47 45 42 41 43 44 43 43 41 41 42 41 41 43 43 43 44 44 44 44 44 45 45 45 46 47 49 50 50 50 51 52 52 53 51 52 52 53
52 54 55 55 53 50 48 45 44 44 44 44 44 43 42 43 43 44 43 44 45 45 45 44 43 45 45 46 47 49 50 51 52 52 53 54 55 56 56 56 58 59 59
57 52 55 58 55 53 52 49 49 48 47 47 46 46 45 44 45 46 46 45 46 47 47 44 43 44 46 47 48 49 50 53 53 53 56 57 59 59 61 61 60 59 61
65 59 56 54 55 54 53 51 50 52 51 51 50 49 48 47 47 46 47 48 48 48 48 47 48 49 49 49 50 52 54 55 56 59 61 61 64 64 62 61 60 61 61
67 64 64 56 54 57 58 58 54 53 53 51 51 53 52 50 50 47 48 49 51 52 51 51 51 50 50 52 54 56 58 58 60 63 63 63 67 67 65 65 66 66 65
76 70 64 61 53 64 61 57 56 55 55 55 53 53 56 55 52 50 50 51 51 52 52 53 53 53 54 55 57 58 59 62 63 63 64 67 69 68 70 67 67 68 66
83 73 71 72 67 62 62 57 59 60 59 56 57 57 56 55 55 56 56 54 54 54 55 56 56 55 57 58 59 59 59 63 64 66 68 70 74 76 79 74 72 75 76
92 86 76 74 73 71 63 62 70 68 65 63 63 58 61 60 57 52 55 53 56 58 58 58 56 57 58 58 59 59 61 62 67 70 71 74 78 81 83 81 79 79 82
99 96 96 86 82 77 73 71 70 76 74 68 66 61 61 62 61 59 57 59 58 56 54 56 54 58 59 58 60 62 64 64 68 72 77 80 83 86 91 87 89 88 88
107 106 102 96 93 86 84 84 76 75 74 69 72 67 67 71 69 66 65 64 62 61 60 61 63 67 64 66 68 67 71 77 79 83 82 85 87 87 91 93 91 89 90
109 110 108 105 100 98 96 89 90 83 78 79 81 79 75 78 76 72 73 70 68 70 67 68 68 69 75 75 78 78 80 81 83 86 89 92 92 92 91 94 92 95 99
103 111 113 111 109 105 104 102 98 90 84 85 83 83 83 80 80 77 78 77 75 76 77 77 76 78 82 84 86 89 87 89 91 92 91 91 93 95 97 97 98 102 106
95 95 106 113 113 112 110 104 101 96 94 92 91 88 84 84 85 83 81 79 77 79 79 80 83 81 85 85 88 92 90 92 92 93 95 96 99 99 103 106 108 116 119
94 95 94 99 112 114 117 108 103 100 97 94 93 93 88 87 87 84 86 83 81 82 81 84 82 90 88 93 94 92 94 95 98 99 101 104 107 111 113 115 119 123 120
89 93 95 95 96 109 113 112 107 100 101 101 89 90 90 86 85 83 87 86 88 85 87 87 88 93 95 95 94 96 101 103 105 104 107 110 113 115 118 120 123 126 129
85 90 92 96 99 95 103 113 112 109 111 103 98 93 96 91 92 90 92 90 91 86 90 91 89 92 95 99 103 104 106 106 109 109 112 115 119 121 123 127 129 133 137
81 85 90 91 94 97 98 94 107 114 112 111 112 110 105 98 96 99 103 97 98 92 92 94 95 96 100 101 102 105 107 109 111 115 120 120 124 126 127 131 134 137 138
78 80 84 88 94 94 95 96 94 99 110 115 113 116 112 110 110 101 104 104 101 97 94 97 99 102 104 104 107 110 114 118 116 118 117 120 127 129 130 128 139 138 136
74 75 79 87 89 91 92 92 94 95 96 106 114 116 111 113 110 103 105 104 100 102 105 105 101 101 104 106 113 117 121 122 118 120 125 124 130 135 136 138 137 137 138
68 76 78 82 85 87 89 88 91 94 98 97 100 104 114 114 111 107 108 109 113 116 115 111 109 112 115 119 121 121 122 125 124 128 132 132 132 135 137 137 137 138 142
59 68 77 79 79 85 86 88 89 90 91 98 102 99 98 101 99 101 104 109 112 113 112 112 113 115 119 120 122 122 123 125 121 122 129 131 129 133 135 136 141 145 144
52 58 68 77 82 81 83 85 84 87 89 87 93 99 98 94 95 96 97 97 100 102 103 104 106 107 109 112 111 119 119 119 117 119 124 129 132 137 141 144 145 142 141
45 52 60 68 75 82 86 84 83 82 81 82 84 89 93 96 97 94 95 96 95 96 97 98 101 104 106 108 111 114 114 117 121 123 127 133 136 141 145 143 143 141 127
38 43 49 54 61 70 80 85 83 83 85 85 83 82 83 89 95 96 94 94 93 94 95 97 100 102 104 107 110 113 118 121 126 130 132 136 137 137 140 144 133 123 128
26 31 37 41 47 56 66 77 83 84 85 83 81 81 84 86 88 94 95 95 96 96 97 100 100 104 107 109 115 118 121 126 128 130 132 132 137 138 129 123 127 130 129
Wind_Direction
246 246 245 247 247 247 248 247 248 253 256 258 259 258 258 262 261 261 261 261 262 262 263 265 267 268 269 270 271 271 273 274 275 277 279 282 282 281 280 284 287 287 285
249 249 247 247 248 248 248 249 249 252 256 259 262 262 260 261 263 264 265 265 264 264 266 267 266 268 268 268 270 273 275 276 276 279 279 280 281 284 286 287 286 284 284
252 251 248 246 247 248 248 250 250 251 254 258 261 263 261 261 263 262 265 267 268 267 268 270 270 268 268 269 271 274 276 278 279 280 282 285 288 289 288 286 285 286 286
246 249 249 248 247 248 250 251 252 253 255 257 259 261 262 261 264 263 263 264 266 267 268 266 268 270 270 271 273 275 277 278 279 281 285 284 286 285 283 285 286 287 287
244 250 244 244 248 250 250 250 254 255 256 255 257 260 260 260 261 262 261 263 265 264 264 265 267 270 271 274 276 279 280 281 283 285 284 285 284 284 285 284 286 285 285
238 238 241 243 245 249 250 250 249 253 255 256 257 259 260 260 260 260 262 260 261 262 264 266 269 271 274 278 278 279 278 281 283 284 284 285 284 285 286 284 281 285 288
241 235 238 239 242 248 246 245 249 249 250 252 256 259 261 262 261 261 261 262 265 267 269 270 272 273 274 277 279 281 282 284 284 282 281 283 284 284 285 286 287 295 293
233 236 239 238 234 241 246 245 245 246 247 247 252 255 259 261 262 262 263 266 267 267 268 269 271 274 276 279 280 281 284 284 284 284 284 286 287 288 291 294 296 303 302
231 231 227 233 236 238 246 252 246 247 246 248 247 253 255 256 256 261 265 268 268 269 268 271 274 275 275 276 276 277 276 278 279 281 281 283 287 290 295 297 301 304 298
234 231 233 236 238 234 232 234 245 247 244 249 245 248 254 251 253 253 257 263 264 265 270 270 270 273 272 272 274 276 275 277 277 279 280 285 286 294 297 299 300 299 296
236 234 233 234 235 236 235 234 243 242 240 246 244 245 249 247 250 251 255 256 263 265 265 267 269 271 270 271 270 272 273 277 278 282 284 284 288 295 292 297 298 295 294
236 235 235 233 234 234 237 239 240 241 243 245 246 246 246 248 251 251 253 254 258 259 260 261 265 270 270 271 274 275 276 279 281 283 284 288 293 292 294 294 293 294 295
237 235 235 234 234 234 236 238 240 241 244 247 246 246 250 250 252 252 254 257 258 261 261 263 268 273 276 276 277 276 278 279 283 287 289 289 290 291 293 294 293 295 296
237 236 234 234 234 235 237 237 241 243 242 246 249 249 252 253 251 253 257 260 261 266 268 269 271 273 273 275 275 279 282 284 288 287 289 290 292 293 293 296 294 297 298
236 236 235 234 234 234 236 237 238 241 243 242 245 249 252 252 252 259 260 261 261 262 265 268 273 272 276 277 281 283 282 285 286 288 291 292 293 294 294 294 295 297 296
236 235 235 234 234 235 236 237 236 235 238 241 245 247 248 251 254 258 259 259 261 265 266 271 272 275 277 277 278 280 284 286 287 288 290 293 292 293 293 293 295 295 297
233 235 234 233 234 234 235 235 237 236 235 237 241 244 247 249 254 257 261 261 261 263 267 269 272 274 275 277 279 284 285 286 286 287 290 290 291 292 291 294 296 297 300
232 232 232 233 234 234 235 235 236 237 238 237 238 240 245 248 252 255 260 260 263 265 267 269 271 274 276 279 280 281 283 285 287 288 289 290 291 292 294 296 297 299 300
230 229 229 230 232 233 233 234 235 237 238 239 240 242 244 247 249 252 255 258 260 263 266 272 275 276 277 277 278 282 285 287 287 288 289 289 291 293 295 294 297 298 300
228 228 227 228 231 232 233 233 234 236 238 240 241 243 244 247 249 251 253 257 259 262 265 267 268 272 274 275 278 279 280 284 285 287 289 290 291 291 293 293 295 299 300
225 224 226 228 229 233 234 234 234 235 237 240 243 243 245 247 250 252 252 256 258 262 265 267 267 270 272 275 278 280 283 284 285 287 289 290 290 290 293 294 296 298 300
225 225 225 226 227 230 233 234 234 234 236 239 242 244 245 248 252 253 254 256 259 263 266 267 269 271 273 276 280 282 284 285 288 289 290 290 292 293 294 296 297 300 302
224 224 224 224 226 228 231 233 234 235 236 239 242 245 246 247 250 254 256 260 262 265 267 269 272 275 277 278 282 282 284 287 290 290 291 292 293 295 296 298 300 302 305
224 226 227 226 227 227 231 232 234 237 238 238 242 245 249 250 251 254 257 259 263 266 268 272 273 275 278 280 282 285 287 287 289 289 291 293 294 296 298 301 303 306 307
226 228 229 230 228 230 232 234 236 237 238 239 242 245 249 252 252 254 257 260 264 268 269 271 273 275 279 282 283 286 287 288 290 291 293 294 295 297 299 303 305 307 307
229 233 235 233 232 233 233 234 236 237 238 240 244 246 249 252 255 255 257 260 262 265 268 271 275 276 279 282 283 286 287 288 292 292 294 295 297 300 302 305 305 305 304
Height
10732 10737 10742 10744 10746 10749 10753 10757 10759 10758 10757 10759 10761 10764 10764 10764 10766 10766 10766 10766 10766 10768 10768 10768 10768 10768 10767 10767 10766 10764 10763 10761 10760 10759 10758 10758 10756 10753 10752 10751 10750 10747 10744
10722 10727 10732 10735 10737 10741 10744 10748 10751 10750 10749 10750 10751 10755 10757 10757 10758 10757 10757 10757 10758 10758 10758 10758 10759 10759 10758 10757 10756 10754 10753 10752 10751 10751 10750 10748 10746 10745 10744 10742 10738 10735 10733
10711 10716 10720 10724 10726 10731 10734 10739 10741 10740 10741 10741 10742 10745 10748 10749 10749 10749 10750 10749 10749 10749 10749 10749 10749 10749 10748 10747 10746 10745 10744 10743 10742 10741 10740 10739 10737 10735 10733 10730 10727 10725 10723
10700 10704 10708 10712 10715 10719 10723 10729 10731 10731 10731 10731 10732 10734 10737 10739 10739 10740 10740 10741 10740 10739 10739 10740 10740 10740 10739 10738 10738 10736 10734 10732 10730 10729 10729 10727 10725 10722 10719 10717 10715 10713 10710
10689 10697 10697 10700 10704 10707 10711 10717 10720 10722 10722 10722 10722 10723 10726 10728 10729 10730 10730 10730 10730 10730 10730 10730 10729 10729 10729 10730 10728 10727 10724 10722 10720 10718 10716 10714 10712 10709 10707 10705 10702 10699 10695
10675 10680 10684 10687 10692 10694 10698 10702 10707 10710 10712 10712 10712 10712 10714 10716 10719 10720 10720 10720 10719 10719 10720 10720 10719 10720 10720 10720 10717 10714 10712 10710 10708 10706 10703 10700 10697 10694 10693 10691 10688 10686 10682
10657 10666 10669 10673 10676 10680 10683 10689 10695 10697 10699 10700 10701 10700 10702 10705 10708 10709 10708 10708 10708 10708 10709 10708 10708 10709 10708 10707 10705 10702 10699 10696 10693 10690 10687 10684 10681 10679 10676 10675 10673 10670 10666
10644 10649 10652 10655 10660 10666 10670 10674 10679 10683 10684 10687 10687 10687 10690 10693 10696 10696 10697 10697 10698 10698 10697 10697 10696 10697 10696 10693 10691 10688 10685 10682 10678 10675 10672 10668 10664 10661 10657 10656 10654 10651 10646
10622 10629 10630 10638 10647 10652 10658 10659 10662 10667 10669 10671 10673 10677 10677 10680 10680 10683 10685 10685 10685 10685 10685 10687 10686 10685 10683 10679 10676 10674 10671 10668 10664 10659 10656 10651 10648 10643 10640 10637 10634 10631 10626
10602 10611 10617 10626 10629 10636 10640 10639 10644 10649 10653 10655 10659 10662 10665 10666 10667 10667 10669 10671 10672 10672 10673 10672 10671 10669 10667 10664 10662 10659 10656 10653 10649 10644 10640 10637 10631 10627 10622 10620 10617 10612 10606
10575 10585 10597 10603 10610 10618 10622 10624 10628 10631 10635 10640 10642 10645 10650 10651 10652 10653 10654 10657 10660 10660 10659 10657 10656 10654 10653 10650 10647 10643 10639 10637 10633 10630 10624 10619 10615 10613 10606 10600 10595 10589 10583
10551 10563 10572 10583 10591 10599 10603 10610 10610 10616 10621 10621 10625 10630 10634 10637 10637 10639 10640 10641 10644 10644 10643 10641 10640 10638 10636 10635 10632 10629 10625 10621 10616 10612 10606 10603 10598 10593 10587 10581 10574 10568 10561
10522 10536 10546 10557 10567 10577 10581 10590 10594 10601 10607 10606 10611 10617 10619 10623 10624 10625 10625 10627 10629 10628 10627 10626 10626 10625 10623 10619 10616 10609 10608 10604 10600 10597 10590 10585 10579 10572 10565 10559 10552 10545 10538
10495 10506 10522 10534 10544 10553 10559 10572 10579 10586 10589 10593 10594 10602 10607 10610 10609 10610 10611 10614 10615 10617 10616 10614 10612 10609 10605 10601 10596 10592 10593 10589 10583 10575 10570 10565 10559 10551 10544 10536 10528 10519 10511
10471 10483 10494 10508 10520 10530 10533 10552 10561 10568 10575 10577 10581 10586 10590 10594 10596 10597 10598 10601 10602 10602 10600 10595 10598 10588 10588 10584 10582 10580 10574 10568 10562 10556 10550 10543 10536 10528 10521 10512 10503 10496 10485
10450 10459 10472 10484 10494 10507 10521 10528 10541 10551 10553 10559 10569 10572 10574 10577 10580 10582 10583 10586 10586 10586 10583 10580 10577 10574 10571 10568 10565 10560 10555 10548 10543 10536 10529 10522 10513 10504 10495 10487 10478 10468 10457
10430 10439 10448 10460 10469 10484 10494 10506 10519 10529 10534 10547 10553 10556 10559 10563 10565 10567 10567 10568 10568 10569 10565 10562 10562 10558 10554 10551 10545 10542 10537 10531 10523 10515 10507 10500 10490 10480 10471 10461 10451 10440 10428
10407 10418 10428 10440 10452 10462 10472 10488 10497 10508 10517 10528 10534 10541 10542 10550 10551 10550 10551 10549 10548 10552 10550 10546 10546 10542 10537 10532 10528 10522 10516 10512 10502 10492 10485 10475 10465 10455 10446 10434 10423 10410 10398
10389 10399 10412 10422 10428 10441 10454 10467 10478 10488 10498 10506 10516 10518 10529 10535 10534 10537 10532 10532 10535 10534 10531 10530 10526 10522 10518 10514 10508 10502 10494 10488 10479 10469 10460 10452 10440 10428 10418 10406 10394 10382 10370
10374 10384 10395 10403 10414 10425 10437 10449 10462 10471 10479 10485 10494 10503 10511 10509 10518 10520 10518 10517 10520 10519 10516 10514 10509 10504 10500 10494 10487 10480 10475 10469 10457 10448 10435 10428 10413 10402 10392 10379 10366 10353 10340
10356 10368 10378 10388 10402 10412 10423 10434 10444 10454 10464 10470 10475 10483 10485 10494 10497 10502 10504 10504 10503 10502 10496 10494 10492 10488 10481 10475 10468 10460 10452 10443 10435 10425 10411 10403 10387 10375 10363 10352 10341 10327 10313
10344 10354 10364 10376 10388 10395 10406 10415 10424 10438 10446 10452 10455 10462 10470 10476 10482 10484 10486 10484 10484 10483 10479 10477 10474 10471 10463 10455 10450 10440 10431 10420 10411 10404 10387 10369 10362 10344 10331 10321 10307 10295 10281
10336 10343 10352 10363 10373 10384 10390 10400 10411 10417 10425 10437 10442 10448 10455 10459 10461 10465 10466 10468 10467 10467 10464 10460 10455 10450 10444 10435 10430 10420 10410 10401 10390 10376 10361 10340 10331 10314 10299 10288 10279 10265 10251
10329 10335 10342 10351 10362 10370 10376 10386 10396 10407 10415 10421 10426 10431 10437 10443 10446 10448 10450 10450 10451 10450 10446 10442 10437 10430 10423 10417 10408 10399 10391 10376 10363 10354 10341 10324 10309 10289 10270 10258 10244 10229 10212
10324 10330 10337 10345 10353 10360 10368 10375 10386 10394 10398 10404 10413 10420 10425 10427 10430 10431 10434 10432 10434 10432 10427 10422 10417 10411 10406 10397 10389 10380 10367 10355 10338 10325 10315 10297 10285 10271 10248 10229 10212 10197 10179
10321 10325 10329 10336 10342 10347 10354 10361 10368 10377 10386 10395 10403 10407 10408 10410 10413 10416 10417 10417 10415 10413 10409 10405 10402 10393 10387 10379 10366 10357 10343 10329 10317 10299 10286 10269 10255 10246 10238 10212 10187 10171 10154